User: anonymous   Login
Location: Unspecified
(0.0000°N, 0.0000°E)
Time: 11:55:56
(UTC+00:00)
Language:

USA 157 - Orbit

View from above orbital plane
View from above orbital plane
View from above satellite
View from above satellite

Ground track
Ground track

The orbit data is extracted from the following two-line orbital elements,

1 26715U 01009A   17287.72536122 0.00000000  00000-0  00000-0 0    07
2 26715   8.3647  35.5643 0005862  52.4202 307.6553  1.00270000    02
Epoch (UTC): 14 October 2017 17:24:31
Eccentricity: 0.0005862
inclination: 8.3647°
perigee height: 35762 km
apogee height: 35811 km
right ascension of ascending node: 35.5643°
argument of perigee: 52.4202°
revolutions per day: 1.00270000
mean anomaly at epoch: 307.6553°
orbit number at epoch: 0

The dashed part of the orbit path shows where the satellite is in the earth's shadow,  

DLR